Regional Weather Roundup
Issued by NWS Columbia, SC

Home | Current Version | Previous Version | Text Only | Print | Product List | Glossary On
Versions: 1 2 3 4 5 6 7 8 9 10 11 12 13 14 15 16 17 18 19 20 21 22 23 24 25 26 27 28 29 30 31 32 33 34 35 36 37 38 39 40 41 42 43 44 45 46 47 48 49 50
000
ASUS42 KCAE 230110
RWRCAE
REGIONAL WEATHER ROUNDUP
NATIONAL WEATHER SERVICE COLUMBIA SC
900 PM EDT FRI MAY 22 2015

NOTE: "FAIR" INDICATES FEW OR NO CLOUDS BELOW 12,000 FEET WITH NO
SIGNIFICANT WEATHER AND/OR OBSTRUCTIONS TO VISIBILITY.

NOT ALL STATIONS ARE QUALITY CONTROLLED BY THE NATIONAL
WEATHER SERVICE. USE DATA WITH CAUTION...ESPECIALLY
DEWPOINT OBSERVATIONS.

SCZ001>056-GAZ040-063>065-077-230200-
...UPSTATE SOUTH CAROLINA...

CITY           SKY/WX    TMP DP  RH WIND       PRES   REMARKS
ANDERSON       CLEAR     68  53  58 E3        30.23R
LIBERTY        CLEAR     68  48  49 S3        30.23R
SPARTANBURG    CLEAR     64  50  59 CALM      30.23R
CLEMSON        CLEAR     72  48  42 SW3       30.24R
GREENVILLE     CLEAR     71  41  33 SE3       30.24R
GREENWOOD      CLEAR     64  53  67 CALM      30.24R
GREER          CLEAR     64  47  53 SE5       30.23R
ROCK HILL      CLEAR     58  43  57 CALM      30.24R
LAURENS        CLEAR     63  54  72 CALM      30.23R


...CENTRAL SOUTH CAROLINA...

CITY           SKY/WX    TMP DP  RH WIND       PRES   REMARKS
COLUMBIA APT   PTCLDY    74  48  39 N5        30.21R
COLUMBIA OWENS CLEAR     71  47  42 CALM      30.22R
DARLINGTON     CLEAR     66  50  55 CALM      30.24R
FLORENCE       CLEAR     67  52  58 N5        30.22R
MCENTIRE ANGB  CLEAR     69  46  42 NE5       30.21R
ORANGEBURG     CLEAR     68  53  58 CALM      30.20R
SUMTER SHAW    CLEAR     71  48  45 NE6       30.20R
NEWBERRY       CLEAR     63  46  55 NE3       30.26R
AIKEN          FAIR      68  46  45 NE5       30.25R
BARNWELL       FAIR      70  55  60 CALM      30.21R
MANNING        FAIR      63  54  72 CALM      30.21R
CAMDEN         FAIR      68  43  40 CALM      30.23R
LANCASTER      CLEAR     64  46  52 CALM      30.23S
WINNSBORO      CLEAR     66  46  48 NE5       30.23R


...EASTERN AND COASTAL SOUTH CAROLINA...

CITY           SKY/WX    TMP DP  RH WIND       PRES   REMARKS
MYRTLE BEACH   CLEAR     68  57  68 SE6       30.24R
N MYRTLE BCH   CLEAR     65  60  84 CALM      30.22R
CONWAY         FAIR      63  61  94 CALM      30.22S
MARION         FAIR      64  52  63 CALM      30.22R
HARTSVILLE     FAIR      64  43  45 N6        30.22R
FLORENCE       CLEAR     67  52  58 N5        30.22R
DARLINGTON     CLEAR     66  50  55 CALM      30.24R
CHARLESTON APT CLEAR     69  59  70 SE7       30.21R
MOUNT PLEASANT LGT RAIN  66  63  88 CALM      30.21S
WALTERBORO     CLEAR     68  55  64 SE3       30.21S
BEAUFORT       CLEAR     70  62  76 E5        30.21R


...EASTERN GEORGIA...

CITY           SKY/WX    TMP DP  RH WIND       PRES   REMARKS
AUGUSTA BUSH F CLEAR     70  52  52 N6        30.19R
AUGUSTA DANIEL CLEAR     74  50  42 N6        30.21R
THOMSON        CLEAR     67  59  73 CALM      30.26R
WASHINGTON     FAIR      68  61  77 CALM      30.22R
CLAXTON        FAIR      70  63  78 CALM      30.19R
SYLVANIA       CLEAR     70  61  74 CALM      30.21R
STATESBORO     CLEAR     70  60  70 CALM      30.20R
SAVANNAH       PTCLDY    70  60  70 E8        30.20R


...SOUTHERN NORTH CAROLINA...

CITY           SKY/WX    TMP DP  RH WIND       PRES   REMARKS
CHARLOTTE      PTCLDY    64  41  42 W3        30.23R
MONROE         CLEAR     62  48  60 SE3       30.23R
WADESBORO      CLEAR     60  52  75 CALM      30.23R
ROCKINGHAM     CLEAR     67  46  46 CALM      30.23S
RUTHERFORDTON  CLEAR     68  44  42 CALM      30.25R
ASHEVILLE      CLEAR     63  35  35 N10       30.29R

$$


USA.gov is the U.S. government's official web portal to all federal, state and local government web resources and services.